Find Kosmos-574

NORAD ID: 6707 Int'l Des: 1973-042 Owner: VMF Country: SU operational
LEOCIRCULARPOLAR

Live Position

Loading 3D Globe...

About Kosmos-574

Description loading...

Upcoming Passes

Passes for default location (London). Set your location on the main map for personalized predictions.

Altitude History

Loading altitude history...

Two-Line Element Set

1 06707U 73042A 26104.91329200 .00000027 00000-0 13145-4 0 9992
2 06707 82.9489 240.3274 0022455 65.6467 58.3656 13.72417236 81992
Epoch: Apr 14, 2026 • Age: 10 hours

Current Status

Altitude 989.9 km
Velocity 7.37 km/s
Sub-Earth Point 82.47°N, 23.95°E
Type other

Most Searched